"Pseudo-MPEC" for P21pnvn

Created 2021 Nov 27 10:07:23 UT using Find_Orb

Click here for an explanation of pseudo-MPECs

 
 Astrometry: 
     P21pnvn  C2021 11 25:`\^LfDJ?Nnn[\T2sD!;HLnu?jAstrometry[redacted;Y@?4sNF52
     P21pnvn  C2021 11 25B=R;FFc'(=mVnqdue9n/N()kGrm#EvbN;bOYjWv73l`_W[$p)4E1F52
     P21pnvn  C2021 11 25qjYclicki]6436Qb,97e]H;u6.[uepy5SgZe_Jx(bhqu%H7e;NPSF52
     P21pnvn  C2021 11 25QE(g-=brg;b@)v+B!]$cLu8+wPp9XFcy(P-El%2.ARk83?O7\!gtF52
     P21pnvn  C2021 11 25`d$VW70#0++=*wv_IP\;c!jU]FB1,`j='Mu[][few\#o+TQq,jCjF51
     P21pnvn  C2021 11 25Twcx:'Yg;%][Y#S0_W%De0D\h=_Y?nV(herelJcLk@ApWVPZ0:sAF51
     P21pnvn KC2021 11 26@=,PaBGP_`cYT?a!C%'4E_VXfori7B)0c#(ITCl!MQ;6dp/LKR+,858
     P21pnvn KC2021 11 26A*.`@owcRbVjP03Be;MQ8PaU9Ia4-o:mjcES-YrQc\+GY3'eK2LC858
     P21pnvn  C2021 11 26g?F)TSRHFB2kuNR/]L\VX]ikTpPZmr9!.lSVlPB^%pjhp(;,^si'F51
     P21pnvn  C2021 11 26.\h8[0pte$@s52IWJNN;=xwX+[+Nb#\xEu;_1TKjtD%`G\1Odl=#F51
     P21pnvn  C2021 11 26$H^cP@3yebnkGYyrIsp(ZqeEGOKmlNrnf5E@V2?explanationAtF51
     P21pnvn  C2021 11 26ggAGfnJ:St6s]GDPnL88;XHMRiG?0C@wkk7/Dey^\c(g1.CNF5iXF51
     P21pnvn KC2021 11 27.17909 02 05 59.49 -00 28 59.2    ~BR5b 21.3 RoNEOCP691
     P21pnvn KC2021 11 27.18963 02 05 59.26 -00 27 50.6    ~BR5b 21.6 RoNEOCP691

Station data:
(691) Steward Observatory, Kitt Peak - Spacewatch  (N31.962174 W111.600327)
   US/Arizona.  Observer J. V. Scotti. 0.9-m f/3 reflector + CCD.
(858) Tebbutt Observatory, Edgewood  (N35.093872 W106.220000)  US/New Mexico.
(F51) Pan-STARRS 1, Haleakala  (N20.707235 W156.255910)  US/Hawaii.
   Observers N. Primak, A. Schultz, S. Watters, J. Thiel, T. Goggia. Measurer
   PS1 Science Consortium. 1.8-m Ritchey-Chrétien + CCD.
(F52) Pan-STARRS 2, Haleakala  (N20.707384 W156.255910)  US/Hawaii. 1.8-m
   Ritchey-Chrétien + CCD.

Orbital elements:  P21pnvn
   Perihelion 2021 Sep 9.814499 +/- 0.184008 TT = 19:32:52 (JD 2459467.314499)
Epoch 2021 Nov 27.0 TT = JDT 2459545.5   Earth MOID: 0.0460   AutoNEOCP
M  52.44634975 +/- 0.4547306        (J2000 ecliptic)
n   0.67079380 +/- 0.0042574        Peri.  261.24337 +/- 0.2037881
a   1.29243890 +/- 0.00546839       Node    66.46728 +/- 0.0483623
e   0.3423595 +/- 0.00288915        Incl.   16.36070 +/- 0.1241953
P   1.47/536.67d           H 23.4   G  0.15   U  9.1  
q 0.84996013 +/- 0.000722325    Q 1.73491767 +/- 0.0110838
From 14 observations 2021 Nov. 25-27 (46.5 hr); mean residual 0".21
Residuals in arcseconds: 
211125 F52  .12-  .21+    211125 F51  .11+  .09+    211126 F51  .06-  .28+    
211125 F52  .03-  .02-    211126 858  .03+  .24-    211126 F51  .05-  .16+    
211125 F52  .08-  .16+    211126 858  .48+  .09+    211127 691  .00   .44-    
211125 F52  .16-  .42-    211126 F51  .14+  .00     211127 691  .19-  .40+    
211125 F51  .04-  .01+    211126 F51  .15-  .18-    

Ephemerides (geocentric):
Date (UTC) HH   RA              Dec         delta   r     elong  mag " sig PA
---- -- -- --  -------------   -----------  ------ ------ -----  --- ---- ---
2021 11 27 10  02 05 57.867   -00 03 18.17  .19848 1.1506 142.5 21.5 .176  19
2021 11 27 11  02 05 57.702   +00 01 05.68  .19875 1.1509 142.5 21.5 .178  21
2021 11 27 12  02 05 57.545   +00 05 28.89  .19902 1.1511 142.5 21.5 .181  23
2021 11 27 13  02 05 57.395   +00 09 51.45  .19929 1.1513 142.5 21.5 .184  24
2021 11 27 14  02 05 57.251   +00 14 13.38  .19956 1.1515 142.5 21.5 .187  26
2021 11 27 15  02 05 57.114   +00 18 34.66  .19983 1.1518 142.5 21.5 .190  27
2021 11 27 16  02 05 56.984   +00 22 55.30  .20011 1.1520 142.5 21.5 .194  29
2021 11 27 17  02 05 56.861   +00 27 15.30  .20038 1.1522 142.5 21.6 .197  30
2021 11 27 18  02 05 56.745   +00 31 34.67  .20065 1.1525 142.6 21.6 .201  32
2021 11 27 19  02 05 56.635   +00 35 53.40  .20093 1.1527 142.6 21.6 .205  33
2021 11 27 20  02 05 56.533   +00 40 11.49  .20120 1.1529 142.6 21.6 .210  35
2021 11 27 21  02 05 56.437   +00 44 28.96  .20147 1.1531 142.6 21.6 .214  36
2021 11 27 22  02 05 56.348   +00 48 45.79  .20175 1.1534 142.6 21.6 .219  37
2021 11 27 23  02 05 56.265   +00 53 02.00  .20202 1.1536 142.6 21.6 .224  39
2021 11 28 00  02 05 56.190   +00 57 17.57  .20230 1.1538 142.6 21.6 .229  40
2021 11 28 01  02 05 56.121   +01 01 32.52  .20258 1.1541 142.6 21.6 .234  41
2021 11 28 02  02 05 56.059   +01 05 46.85  .20285 1.1543 142.6 21.6 .240  43
2021 11 28 03  02 05 56.003   +01 10 00.55  .20313 1.1545 142.6 21.6 .246  44
2021 11 28 04  02 05 55.955   +01 14 13.63  .20341 1.1548 142.6 21.6 .252  45
2021 11 28 05  02 05 55.913   +01 18 26.08  .20368 1.1550 142.6 21.6 .258  46
2021 11 28 06  02 05 55.878   +01 22 37.92  .20396 1.1552 142.6 21.6 .264  47
2021 11 28 07  02 05 55.849   +01 26 49.14  .20424 1.1554 142.6 21.6 .271  48
2021 11 28 08  02 05 55.827   +01 30 59.75  .20452 1.1557 142.6 21.6 .278  49
2021 11 28 09  02 05 55.812   +01 35 09.74  .20480 1.1559 142.6 21.6 .285  50
2021 11 28 10  02 05 55.803   +01 39 19.11  .20508 1.1561 142.6 21.6 .292  51
2021 11 28 11  02 05 55.801   +01 43 27.88  .20536 1.1564 142.6 21.6 .300  52
2021 11 28 12  02 05 55.806   +01 47 36.03  .20564 1.1566 142.5 21.6 .307  53
2021 11 28 13  02 05 55.817   +01 51 43.58  .20592 1.1568 142.5 21.6 .315  54
2021 11 28 14  02 05 55.835   +01 55 50.52  .20620 1.1571 142.5 21.6 .323  55
2021 11 28 15  02 05 55.859   +01 59 56.85  .20648 1.1573 142.5 21.6 .332  56
2021 11 28 16  02 05 55.891   +02 04 02.58  .20677 1.1575 142.5 21.6 .340  56
2021 11 28 17  02 05 55.928   +02 08 07.70  .20705 1.1577 142.5 21.6 .349  57
2021 11 28 18  02 05 55.972   +02 12 12.22  .20733 1.1580 142.5 21.6 .357  58
2021 11 28 19  02 05 56.023   +02 16 16.14  .20761 1.1582 142.5 21.6 .366  59
2021 11 28 20  02 05 56.080   +02 20 19.47  .20790 1.1584 142.5 21.6 .376  59
2021 11 28 21  02 05 56.144   +02 24 22.19  .20818 1.1587 142.5 21.6 .385  60
2021 11 28 22  02 05 56.215   +02 28 24.32  .20847 1.1589 142.5 21.6 .395  61
2021 11 28 23  02 05 56.291   +02 32 25.86  .20875 1.1591 142.5 21.6 .404  61
2021 11 29 00  02 05 56.375   +02 36 26.80  .20904 1.1593 142.5 21.7 .414  62
2021 11 29 01  02 05 56.465   +02 40 27.16  .20932 1.1596 142.5 21.7 .424  62
2021 11 29 02  02 05 56.561   +02 44 26.92  .20961 1.1598 142.5 21.7 .434  63
2021 11 29 03  02 05 56.664   +02 48 26.09  .20989 1.1600 142.5 21.7 .445  63
2021 11 29 04  02 05 56.773   +02 52 24.68  .21018 1.1603 142.5 21.7 .455  64
2021 11 29 05  02 05 56.889   +02 56 22.68  .21047 1.1605 142.5 21.7 .466  64
2021 11 29 06  02 05 57.011   +03 00 20.10  .21075 1.1607 142.5 21.7 .477  65
2021 11 29 07  02 05 57.140   +03 04 16.93  .21104 1.1610 142.5 21.7 .488  65
2021 11 29 08  02 05 57.275   +03 08 13.18  .21133 1.1612 142.5 21.7 .499  66
2021 11 29 09  02 05 57.416   +03 12 08.86  .21162 1.1614 142.5 21.7 .511  66